Regional Weather Roundup
Issued by NWS

Home | Current Version | Previous Version | Text Only | Print | Product List | Glossary On
Versions: 1 2 3 4 5 6 7 8 9 10 11 12 13 14 15 16 17 18 19 20 21 22 23 24 25 26 27 28 29 30 31 32 33 34 35 36 37 38 39 40 41 42 43 44 45 46 47 48 49 50
000
ASUS43 KDMX 072007
RWRIA

WEATHER ROUNDUP FOR IOWA
NATIONAL WEATHER SERVICE DES MOINES IA
300 PM CDT TUE JUL 07 2015

NOTE: "FAIR" INDICATES FEW OR NO CLOUDS BELOW 12,000 FEET WITH NO
SIGNIFICANT WEATHER AND/OR OBSTRUCTIONS TO VISIBILITY.

* - THESE STATIONS ARE NOT NWS STATIONS...THUS NOT UNDER NWS
QUALITY CONTROL.  THEY ALSO DO NOT REPORT WEATHER SUCH
AS PRECIPITATION OR FOG.

IAZ001>003-012>014-020>022-031>034-043>046-072100-
   NORTHWEST IOWA

CITY           SKY/WX    TMP DP  RH WIND       PRES   REMARKS
CARROLL *      SUNNY     68  50  52 N10G18    30.12F
CHEROKEE *     SUNNY     68  48  49 NE8G16    30.14F
DENISON *      MOSUNNY   68  52  56 NE14      30.11F
LE MARS *      SUNNY     68  50  52 NE10G20   30.16F
ORANGE CITY *  SUNNY     66  48  52 N8        30.15F
SHELDON *      SUNNY     68  50  52 N12G20    30.14F
SIOUX CITY     SUNNY     70  49  47 VRB7G17   30.14F
SPENCER        SUNNY     70  48  45 N12       30.15F
STORM LAKE *   SUNNY     66  48  52 NE12G18   30.15F
$$

IAZ055>058-069>071-079>083-090>094-072100-
   SOUTHWEST IOWA

CITY           SKY/WX    TMP DP  RH WIND       PRES   REMARKS
ATLANTIC *     SUNNY     70  52  52 N10       30.11F
AUDUBON *      SUNNY     70  54  56 NE8       30.13F
CLARINDA *     SUNNY     72  59  64 NE12      30.12S
COUNCIL BLFS * MOSUNNY   70  54  56 NE10      30.12F
CRESTON *      SUNNY     70  52  52 N13G18    30.11S
HARLAN  *      SUNNY     68  54  60 N10G21    30.15F
LAMONI         MOSUNNY   73  56  54 NE9       30.09S
RED OAK *      SUNNY     72  54  53 N13G18    30.11F
SHENANDOAH *   SUNNY     72  52  49 N10       30.11F
$$

IAZ047>049-059>061-072>074-084-072100-
   CENTRAL IOWA

CITY           SKY/WX    TMP DP  RH WIND       PRES   REMARKS
AMES           PTSUNNY   69  53  56 NE13      30.11F
ANKENY *       PTSUNNY   70  54  56 N8        30.10S
CHARITON *     PTSUNNY   70  55  60 N10       30.09S
DES MOINES     PTSUNNY   72  50  45 NE9G21    30.09F
GRINNELL*      MOSUNNY   68  52  56 N9        30.10S
KNOXVILLE *    PTSUNNY   70  52  52 N12       30.08S
MARSHALLTOWN   CLOUDY    68  52  56 N8        30.10S
PELLA *        MOSUNNY   72  57  60 N8        30.10S
PERRY *          N/A     70  52  52 NE10      30.11F
$$

IAZ004>006-015-016-023>025-035-036-072100-
   NORTH CENTRAL IOWA

CITY           SKY/WX    TMP DP  RH WIND       PRES   REMARKS
ALGONA *       MOSUNNY   66  50  55 NE9G17    30.14F
CLARION *      PTSUNNY   68  52  56 N8G16     30.13S
ESTHERVILLE    MOSUNNY   65  49  56 N10G16    30.15F
FORT DODGE *   SUNNY     68  52  56 N10       30.13F
MASON CITY     PTSUNNY   66  50  56 N12       30.14F
FOREST CITY *  PTSUNNY   64  50  59 N9        30.14F
IOWA FALLS *     N/A     68  50  52 N12       30.12F
$$

IAZ007>011-017>019-026>030-037>042-050>054-066-072100-
   NORTHEAST IOWA

CITY           SKY/WX    TMP DP  RH WIND       PRES   REMARKS
CEDAR RAPIDS   PTSUNNY   71  54  54 N9        30.07S
CHARLES CITY * MOSUNNY   66  50  55 N15G22    30.12F
CLINTON *      PTSUNNY   70  55  60 N14G20    30.07S
DECORAH *        N/A    N/A N/A N/A MISG        N/A
DUBUQUE        PTSUNNY   68  51  54 NE7       30.07S
MONTICELLO *   CLOUDY    68  54  60 NE7       30.07S
OELWEIN *      MOSUNNY   66  50  55 N9G16     30.11S
WATERLOO       MOSUNNY   68  49  50 N9        30.09S
$$

IAZ064-065-067-068-078-072100-
   EAST CENTRAL IOWA

CITY           SKY/WX    TMP DP  RH WIND       PRES   REMARKS
DAVENPORT      PTSUNNY   69  56  62 NE9       30.05S
IOWA CITY      MOSUNNY   71  55  56 NW10      30.07S
MT. PLEASANT * MOSUNNY   77  50  38 N8G16     30.06R HAZE
MUSCATINE *    PTSUNNY   72  55  56 NE14      30.06S
QUAD CITIES    PTSUNNY   73  56  54 N8        30.04R HAZE
$$

IAZ062-063-075>077-085>089-095>099-072100-
   SOUTHEAST IOWA

CITY           SKY/WX    TMP DP  RH WIND       PRES   REMARKS
BURLINGTON     MOSUNNY   74  59  59 N13       30.04S HAZE
FAIRFIELD *    MOSUNNY   72  57  60 N12       30.06S
KEOKUK *       PTSUNNY   73  59  60 NE8       30.04R
OSKALOOSA *      N/A     72  55  56 N6        30.08S
CENTERVILLE *  SUNNY     72  57  60 N10       30.09S
OTTUMWA        PTSUNNY   72  56  57 N13       30.06S
WASHINGTON *   CLOUDY    70  57  64 N8        30.07S
$$

ABBREVIATIONS USED IN REMARKS
   TC - TEMPERATURES IN CELSIUS
  WCI - WIND CHILL INDEX
   HX - HEAT INDEX
  VSB - VISIBILITY
$$



USA.gov is the U.S. government's official web portal to all federal, state and local government web resources and services.